timestamp,topic
1602986686,67
1602986702,69
1602986710,88
1602986712,88
1602986798,70
1602986859,87
1602986920,71
1602986981,71
1602987042,70
1602987103,70
1602987164,70
1602987224,70
1602987285,69
1602987346,69
1602987407,69
1602987472,68
1602987529,68
1602987590,68
1602987650,67
1602987711,67
1602987773,67
1602987833,67
1602987894,67
1602987955,67
1602988016,67
1602988076,67
1602988137,67
1602988198,67
1602988259,67
1602988320,66
1602988381,66
1602988443,66
1602988502,66
1602988563,66
1602988624,66
1602988685,65
1602988746,65
1602988807,64
1602988868,63
1602988928,63
1602988989,62
1602989050,61
1602989111,61
1602989172,61
1602989233,60
1602989294,60
1602989354,60
1602989415,60
1602989476,60
1602989537,60
1602989598,60
1602989659,60
1602989720,60
1602989781,60
1602989841,61
1602989902,61
1602989963,61
1602990024,61
1602990085,61
1602990146,61
1602990206,61
1602990267,61
1602990328,61
1602990389,61
1602990450,61
1602990511,61
1602990571,61
1602990632,61
1602990693,61
1602990754,60
1602990815,60
1602990876,59
1602990937,58
1602990998,58
1602991058,57
1602991119,57
1602991180,57
1602991241,56
1602991302,56
1602991363,56
1602991424,57
1602991484,56
1602991545,57
1602991606,56
1602991667,57
1602991728,57
1602991789,58
1602991850,58
1602991911,59
1602991971,59
1602992032,59
1602992093,59
1602992154,59
1602992215,59
1602992276,59
1602992336,59
1602992397,59
1602992458,59
1602992519,59
1602992580,59
1602992641,59
1602992702,60
1602992763,60
1602992823,59
1602992884,58
1602992945,57
1602993006,56
1602993067,56
1602993128,56
1602993188,55
1602993249,55
1602993310,55
1602993371,55
1602993432,55
1602993493,55
1602993554,56
1602993614,56
1602993675,56
1602993737,56
1602993797,57
1602993858,57
1602993919,58
1602993980,58
1602994041,58
1602994101,58
1602994162,58
1602994223,58
1602994284,59
1602994345,59
1602994406,59
1602994467,58
1602994527,58
1602994588,58
1602994649,58
1602994710,58
1602994771,58
1602994832,58
1602994893,58
1602994953,56
1602995014,56
1602995075,55
1602995136,55
1602995197,55
1602995258,54
1602995319,54
1602995379,54
1602995440,54
1602995501,54
1602995562,54
1602995623,54
1602995684,55
1602995745,55
1602995805,55
1602995866,55
1602995927,56
1602995988,56
1602996049,56
1602996110,57
1602996171,57
1602996232,57
1602996292,57
1602996353,57
1602996414,57
1602996475,57
1602996536,57
1602996597,57
1602996658,57
1602996718,57
1602996779,57
1602996840,57
1602996901,57
1602996962,57
1602997023,56
1602997084,55
1602997144,54
1602997205,54
1602997266,53
1602997327,53
1602997388,53
1602997449,53
1602997510,52
1602997570,53
1602997631,53
1602997693,53
1602997753,53
1602997814,54
1602997875,54
1602997936,54
1602997996,54
1602998057,55
1602998118,55
1602998179,55
1602998240,56
1602998301,56
1602998362,56
1602998422,56
1602998483,56
1602998544,56
1602998605,56
1602998666,56
1602998727,56
1602998788,56
1602998848,56
1602998909,55
1602998970,56
1602999031,56
1602999092,56
1602999153,55
1602999214,55
1602999275,55
1602999335,54
1602999396,53
1602999457,52
1602999518,52
1602999579,51
1602999640,51
1602999700,51
1602999761,51
1602999822,51
1602999883,51
1602999944,51
1603000005,52
1603000066,52
1603000127,53
1603000187,53
1603000248,53
1603000309,53
1603000370,54
1603000431,54
1603000492,54
1603000552,55
1603000613,55
1603000674,55
1603000735,55
1603000797,55
1603000858,55
1603000918,55
1603000978,55
1603001039,55
1603001100,55
1603001161,55
1603001222,54
1603001283,54
1603001344,54
1603001404,54
1603001465,54
1603001526,53
1603001587,53
1603001648,53
1603001709,53
1603001770,52
1603001831,51
1603001892,50
1603001952,49
1603002013,49
1603002074,49
1603002135,49
1603002196,49
1603002257,49
1603002317,49
1603002378,50
1603002439,50
1603002500,50
1603002561,51
1603002622,51
1603002683,51
1603002743,52
1603002804,53
1603002865,53
1603002926,53
1603002987,53
1603003048,54
1603003109,54
1603003169,54
1603003230,54
1603003291,54
1603003352,54
1603003413,54
1603003474,54
1603003535,53
1603003595,53
1603003656,53
1603003717,53
1603003778,53
1603003839,53
1603003900,52
1603003961,52
1603004021,52
1603004082,52
1603004143,52
1603004204,52
1603004265,51
1603004326,50
1603004387,49
1603004447,48
1603004508,48
1603004569,48
1603004630,48
1603004691,48
1603004752,48
1603004813,48
1603004873,48
1603004934,49
1603004995,49
1603005056,50
1603005117,50
1603005178,50
1603005239,51
1603005299,52
1603005360,52
1603005421,52
1603005482,52
1603005543,52
1603005604,53
1603005665,53
1603005725,53
1603005786,53
1603005847,53
1603005908,53
1603005969,52
1603006030,52
1603006091,52
1603006151,52
1603006212,52
1603006273,52
1603006334,51
1603006395,51
1603006456,51
1603006517,51
1603006577,51
1603006638,51
1603006699,51
1603006760,50
1603006821,49
1603006882,48
1603006943,47
1603007003,47
1603007064,46
1603007125,46
1603007186,46
1603007247,47
1603007308,47
1603007369,47
1603007429,47
1603007490,48
1603007551,48
1603007612,49
1603007673,49
1603007734,50
1603007795,51
1603007856,51
1603007916,51
1603007977,51
1603008038,51
1603008099,52
1603008160,52
1603008221,52
1603008282,52
1603008342,52
1603008403,52
1603008464,51
1603008525,51
1603008586,51
1603008647,51
1603008708,51
1603008768,51
1603008829,50
1603008890,50
1603008951,50
1603009012,50
1603009073,50
1603009133,50
1603009194,50
1603009255,50
1603009316,49
1603009377,48
1603009438,48
1603009499,47
1603009560,46
1603009620,45
1603009681,45
1603009742,45
1603009803,45
1603009864,46
1603009925,46
1603009986,46
1603010046,47
1603010107,47
1603010168,48
1603010229,48
1603010290,49
1603010351,50
1603010412,50
1603010472,50
1603010533,50
1603010594,50
1603010655,51
1603010716,51
1603010777,51
1603010838,51
1603010898,51
1603010959,51
1603011020,50
1603011081,50
1603011142,50
1603011203,50
1603011264,50
1603011325,50
1603011385,50
1603011446,49
1603011507,49
1603011568,49
1603011629,49
1603011690,49
1603011750,49
1603011811,48
1603011872,48
1603011933,48
1603011994,47
1603012056,46
1603012116,45
1603012176,44
1603012237,44
1603012298,44
1603012359,44
1603012420,45
1603012481,45
1603012542,45
1603012602,46
1603012663,46
1603012724,47
1603012785,47
1603012846,48
1603012907,49
1603012968,49
1603013029,49
1603013089,49
1603013150,50
1603013211,50
1603013272,50
1603013333,50
1603013394,50
1603013454,50
1603013515,50
1603013576,50
1603013637,50
1603013698,49
1603013759,49
1603013820,49
1603013880,49
1603013941,49
1603014002,48
1603014063,48
1603014124,48
1603014185,49
1603014246,49
1603014307,48
1603014367,48
1603014428,48
1603014489,48
1603014550,47
1603014611,46
1603014672,46
1603014732,45
1603014793,44
1603014854,43
1603014915,43
1603014976,43
1603015037,44
1603015098,44
1603015159,44
1603015219,45
1603015280,45
1603015341,46
1603015402,46
1603015463,47
1603015524,48
1603015586,48
1603015645,49
1603015706,49
1603015767,49
1603015828,49
1603015889,49
1603015950,49
1603016011,49
1603016071,49
1603016132,49
1603016195,49
1603016254,48
1603016315,48
1603016376,48
1603016437,48
1603016498,48
1603016558,48
1603016619,48
1603016680,47
1603016741,48
1603016804,48
1603016863,48
1603016923,47
1603016986,47
1603017045,47
1603017106,47
1603017167,46
1603017228,46
1603017289,46
1603017349,45
1603017410,44
1603017471,43
1603017532,43
1603017593,42
1603017654,42
1603017715,42
1603017775,43
1603017836,43
1603017897,44
1603017958,44
1603018019,45
1603018080,45
1603018141,46
1603018201,47
1603018263,47
1603018323,48
1603018384,48
1603018445,48
1603018506,48
1603018567,48
1603018627,48
1603018688,48
1603018750,48
1603018810,48
1603018871,48
1603018932,47
1603018993,47
1603019053,47
1603019114,47
1603019175,47
1603019236,47
1603019297,47
1603019358,47
1603019419,47
1603019479,47
1603019540,47
1603019601,46
1603019662,46
1603019723,46
1603019784,46
1603019845,46
1603019905,46
1603019966,45
1603020027,44
1603020088,44
1603020149,43
1603020210,42
1603020271,42
1603020332,42
1603020392,41
1603020453,42
1603020514,42
1603020575,42
1603020636,43
1603020697,43
1603020758,44
1603020818,44
1603020879,45
1603020940,46
1603021001,47
1603021062,47
1603021123,47
1603021184,47
1603021245,47
1603021305,48
1603021366,48
1603021427,48
1603021488,47
1603021549,47
1603021610,47
1603021670,47
1603021731,47
1603021792,47
1603021854,47
1603021914,46
1603021975,47
1603022036,47
1603022096,47
1603022157,46
1603022218,46
1603022279,46
1603022340,46
1603022401,46
1603022462,46
1603022522,45
1603022583,45
1603022644,44
1603022705,43
1603022766,43
1603022827,43
1603022888,43
1603022948,42
1603023009,41
1603023070,41
1603023131,41
1603023192,41
1603023253,41
1603023314,42
1603023374,42
1603023435,43
1603023496,44
1603023557,44
1603023618,45
1603023679,46
1603023740,46
1603023800,46
1603023861,47
1603023922,47
1603023983,47
1603024044,47
1603024105,47
1603024166,47
1603024226,47
1603024287,47
1603024348,47
1603024409,46
1603024470,46
1603024531,46
1603024592,46
1603024653,46
1603024713,46
1603024774,46
1603024835,46
1603024896,46
1603024957,46
1603025018,45
1603025079,45
1603025220,43
1603025231,83
1603025239,85
1603025241,85
1603025258,58
1603025318,75
1603025323,47
1603025384,87
1603025445,49
1603025506,51
1603025557,51
1603025580,53
1603025642,72
1603025702,54
1603025763,54
1603025824,55
1603025884,55
1603025945,55
1603026006,54
1603026067,54
1603026128,53
1603026189,53
1603026250,53
1603026310,53
1603026353,53
1603026359,58
1603026420,87
1603026481,52
1603026542,53
1603026603,53
1603026663,54
1603026724,55
1603026786,55
1603026846,55
1603026907,55
1603026968,55
1603027029,55
1603027089,55
1603027150,54
1603027211,54
1603027273,54
1603027333,54
1603027394,54
1603027455,53
1603027515,53
1603027547,53
1603027553,66
1603027614,87
1603027676,53
1603027736,54
1603027797,55
1603027857,56
1603027918,57
1603027979,57
1603028040,57
1603028101,56
1603028152,55
1603028156,57
1603028217,87
1603028278,53
1603028325,54
1603028328,56
1603028342,85
1603028346,87
1603028407,85
1603028468,55
1603028528,56
1603028589,56
1603028650,56
1603028711,56
1603028772,56
1603028833,56
1603028894,56
1603028954,56
1603029015,55
1603029076,55
1603029137,55
1603029198,56
1603029259,56
1603029319,56
1603029380,56
1603029441,56
1603029502,55
1603029563,55
1603029624,55
1603029685,54
1603029745,54
1603029806,54
1603029867,53
1603029928,53
1603029989,52
1603030050,52
1603030111,52
1603030128,51
1603030132,84
1603030193,87
1603030254,51
1603030315,52
1603030376,54
1603030437,55
1603030498,55
1603030558,54
1603030619,54
1603030680,53
1603030741,52
1603030802,52
1603030863,50
1603030924,50
1603030986,49
1603031046,48
1603031106,48
1603031167,48
1603031228,47
1603031289,47
1603031336,48
1603031342,51
1603031403,87
1603031464,48
1603031525,50
1603031585,51
1603031646,51
1603031707,52
1603031768,52
1603031829,53
1603031890,53
1603031951,53
1603032011,53
1603032072,53
1603032133,53
1603032156,52
1603032159,79
1603032189,87
1603032195,69
1603032256,87
1603032317,54
1603032378,55
1603032439,56
1603032499,58
1603032560,59
1603032621,59
1603032682,59
1603032743,60
1603032804,59
1603032865,59
1603032925,58
1603032986,57
1603033047,56
1603033108,55
1603033169,54
1603033230,54
1603033291,53
1603033351,53
1603033412,53
1603033473,52
1603033534,52
1603033595,52
1603033656,52
1603033717,52
1603033778,52
1603033838,52
1603033899,53
1603033960,53
1603034021,53
1603034082,53
1603034143,53
1603034204,52
1603034264,52
1603034325,51
1603034386,51
1603034447,50
1603034508,50
1603034569,49
1603034630,49
1603034690,49
1603034751,48
1603034812,48
1603034873,48
1603034934,48
1603034995,48
1603035056,48
1603035117,47
1603035177,46
1603035238,45
1603035299,45
1603035360,44
1603035421,44
1603035482,44
1603035543,43
1603035603,42
1603035664,42
1603035725,42
1603035786,42
1603035823,42
1603035829,51
1603035885,84
1603035892,44
1603035953,86
1603036014,45
1603036075,47
1603036135,48
1603036196,49
1603036257,49
1603036318,50
1603036366,50
1603036373,54
1603036434,87
1603036494,50
1603036555,51
1603036616,52
1603036677,53
1603036738,54
1603036799,55
1603036860,55
1603036920,56
1603036981,56
1603037042,56
1603037103,56
1603037164,57
1603037225,57
1603037286,57
1603037347,58
1603037407,58
1603037469,58
1603037529,57
1603037590,57
1603037651,56
1603037712,56
1603037757,55
1603037767,58
1603037818,87
1603037829,56
1603037890,87
1603037951,57
1603038012,58
1603038073,59
1603038134,59
1603038194,59
1603038255,58
1603038316,58
1603038377,58
1603038438,57
1603038499,57
1603038560,56
1603038620,56
1603038679,56
1603038691,56
1603038752,87
1603038812,56
1603038873,57
1603038934,58
1603038995,59
1603039056,60
1603039117,61
1603039178,61
1603039238,62
1603039299,62
1603039360,63
1603039421,63
1603039482,63
1603039543,64
1603039604,64
1603039664,64
1603039725,64
1603039786,63
1603039847,63
1603039908,63
1603039969,63
1603040030,63
1603040091,62
1603040151,61
1603040212,60
1603040273,59
1603040334,58
1603040395,57
1603040456,56
1603040517,55
1603040577,54
1603040638,53
1603040676,53
1603040689,61
1603040750,87
1603040811,53
1603040872,54
1603040933,56
1603040994,56
1603041055,57
1603041116,57
1603041176,58
1603041237,58
1603041298,58
1603041359,58
1603041420,58
1603041481,57
1603041542,57
1603041602,57
1603041663,57
1603041724,57
1603041785,56
1603041846,56
1603041907,56
1603041968,57
1603042029,56
1603042089,55
1603042150,54
1603042211,54
1603042272,54
1603042333,54
1603042394,54
1603042455,54
1603042515,54
1603042576,53
1603042637,52
1603042698,51
1603042759,50
1603042820,50
1603042881,49
1603042941,48
1603043002,48
1603043063,47
1603043124,46
1603043185,45
1603043246,45
1603043307,45
1603043368,45
1603043428,45
1603043489,46
1603043550,46
1603043560,46
1603043580,87
1603043638,77
1603043662,49
1603043721,77
1603043747,55
1603043808,75
1603043814,59
1603043875,87
1603043924,65
1603043957,69
1603044018,76
1603044078,68
1603044089,69
1603044099,87
1603044160,87
1603044221,69
1603044282,70
1603044343,71
1603044371,71
1603044379,86
1603044437,87
1603044441,72
1603044502,87
1603044563,72
1603044623,72
1603044684,72
1603044745,72
1603044806,72
1603044867,72
1603044899,71
1603044907,83
1603044967,87
1603045028,71
1603045053,71
1603045088,87
1603045093,83
1603045100,87
1603045161,87
1603045222,80
1603045283,81
1603045344,82
1603045405,82
1603045465,82
1603045526,82
1603045584,82
1603045589,83
1603045649,88
1603045710,82
1603045771,81
1603045832,82
1603045893,82
1603045954,81
1603046015,81
1603046075,81
1603046136,80
1603046197,80
1603046258,80
1603046319,79
1603046380,79
1603046441,78
1603046502,78
1603046562,78
1603046577,77
1603046582,88
1603046586,88
1603046589,88
1603046650,88
1603046711,77
1603046772,77
1603046833,77
1603046894,77
1603046954,77
1603047015,77
1603047076,77
1603047137,76
1603047198,76
1603047259,76
1603047320,76
1603047380,75
1603047441,75
1603047502,75
1603047563,75
1603047624,74
1603047685,74
1603047746,74
1603047807,73
1603047867,73
1603047928,73
1603047989,72
1603048050,72
1603048111,72
1603048172,72
1603048233,73
1603048293,72
1603048354,72
1603048415,72
1603048476,72
1603048537,72
1603048598,72
1603048659,72
1603048720,72
1603048780,73
1603048841,73